Regional Weather Roundup
Issued by NWS

Home | Current Version | Previous Version | Graphics & Text | Print | Product List | Glossary On
Versions: 1 2 3 4 5 6 7 8 9 10 11 12 13 14 15 16 17 18 19 20 21 22 23 24 25 26 27 28 29 30 31 32 33 34 35 36 37 38 39 40 41 42 43 44 45 46 47 48 49 50
397
ASUS43 KMKX 271200
RWRWI

WISCONSIN REGIONAL WEATHER ROUNDUP
NATIONAL WEATHER SERVICE MILWAUKEE/SULLIVAN WI
700 AM CDT WED JUL 27 2016

NOTE: "FAIR" INDICATES FEW OR NO CLOUDS BELOW 12,000 FEET WITH NO
SIGNIFICANT WEATHER AND/OR OBSTRUCTIONS TO VISIBILITY.

WIZ001-002-006>008-014>016-023>028-271300-
NORTHWEST WISCONSIN

CITY           SKY/WX    TMP DP  RH WIND       PRES   REMARKS
SUPERIOR ARPT  CLOUDY    65  63  94 CALM      29.98R
ASHLAND        CLOUDY    68  65  90 SW7       30.00R
6HR MIN TEMP:  65; 6HR MAX TEMP:  72; 6HR PCP: TRACE;

HAYWARD        HVY RAIN  66  63  90 S7        30.02F FOG
6HR MIN TEMP:  66; 6HR MAX TEMP:  69; 6HR PCP:  0.33;

SIREN          PTSUNNY   66  64  94 SE3       29.98S
CUMBERLAND     CLOUDY    66  61  82 NE5       30.01R
RICE LAKE      CLOUDY    68  63  83 NE7       30.02S
CHETEK         CLOUDY    71  66  86 CALM      30.01R
LADYSMITH      CLOUDY    67  64  88 N21G33    30.06R
EAU CLAIRE     NOT AVBL
MENOMONIE      CLOUDY    69  67  94 SE3       29.99R
NEW RICHMOND   PTSUNNY   71  69  94 SE3       29.98S
OSCEOLA        CLOUDY    70  70 100 CALM      30.00R
$$

WIZ003>005-009-010-017-018-271300-
NORTH CENTRAL WISCONSIN

CITY           SKY/WX    TMP DP  RH WIND       PRES   REMARKS
MANITOWISH WTR LGT RAIN  66  66 100 W3        30.01S
ARBOR VITAE    LGT RAIN  66  64  93 W3        30.03R
WOODRUFF       LGT RAIN  66  64  93 W3        30.03R
RHINELANDER    HVY RAIN  65  62  90 VRB3      30.04R FOG
6HR MIN TEMP:  63; 6HR MAX TEMP:  67; 6HR PCP:  0.13;

EAGLE RIVER    CLOUDY    62  62 100 CALM      30.01S
LAND O LAKES   CLOUDY    63  63  99 CALM      30.02R
PHILLIPS       CLOUDY    64  64 100 S5        30.02S
TOMAHAWK       CLOUDY    62  60  96 CALM      30.04R
MEDFORD        CLOUDY    63  63 100 CALM      30.01S
MERRILL        PTSUNNY   62  62 100 CALM      30.02R
$$

WIZ029-030-035-036-043>047-271300-
CENTRAL WISCONSIN

CITY           SKY/WX    TMP DP  RH WIND       PRES   REMARKS
WAUSAU         MOSUNNY   68  65  90 CALM      30.00S
6HR MIN TEMP:  65; 6HR MAX TEMP:  76;

MOSINEE        SUNNY     66  66 100 CALM      30.02S
MARSHFIELD     SUNNY     69  66  90 W3        30.01S
6HR MIN TEMP:  66; 6HR MAX TEMP:  73;

STEVENS POINT  SUNNY     64  64 100 CALM      30.01F
WAUPACA        MOSUNNY   69  69  99 CALM      30.00F
WAUTOMA        MOSUNNY   67  66  97 CALM      30.02R
6HR MIN TEMP:  65; 6HR MAX TEMP:  70;

WISC RAPIDS    SUNNY     70  66  87 CALM      30.01F
6HR MIN TEMP:  65; 6HR MAX TEMP:  73;

CAMP DOUGLAS   NOT AVBL
$$

WIZ011>013-019>022-031-037>040-048>050-271300-
NORTHEAST WISCONSIN

CITY           SKY/WX    TMP DP  RH WIND       PRES   REMARKS
ANTIGO         MOSUNNY   62  61  99 CALM      30.02S
SHAWANO        PTSUNNY   70  66  87 W5        29.99S
OCONTO         CLOUDY    68  68 100 SW3       29.97R
STURGEON BAY   SUNNY     71  68  90 S3        29.98R
6HR MIN TEMP:  69; 6HR MAX TEMP:  76;

GREEN BAY      MOSUNNY   70  70 100 W3        29.98F
6HR MIN TEMP:  66; 6HR MAX TEMP:  74;

MANITOWOC      NOT AVBL
APPLETON       PTSUNNY   72  70  94 CALM      29.99S
CLINTONVILLE   PTSUNNY   68  64  88 CALM      29.99F
OSHKOSH        PTSUNNY   73  67  81 W5        30.00S
6HR MIN TEMP:  70; 6HR MAX TEMP:  74;

$$

WIZ032>034-041-042-053>061-271300-
SOUTHWEST WISCONSIN

CITY           SKY/WX    TMP DP  RH WIND       PRES   REMARKS
LA CROSSE      SUNNY     73  70  90 S5        30.00R
6HR MIN TEMP:  70; 6HR MAX TEMP:  75;

SPARTA         MOSUNNY   62  62  99 CALM      30.01F
VIROQUA        SUNNY     67  67 100 CALM      30.03F
BOSCOBEL       CLOUDY    67  65  93 CALM      30.02S FOG
6HR MIN TEMP:  64; 6HR MAX TEMP:  67;

PRAIRIE DU CHI   N/A     65  64  95 E3        30.01F FOG
PLATTEVILLE    SUNNY     67  67 100 CALM      30.04S
$$

WIZ056-057-062-063-064-067-068-271300-
SOUTH CENTRAL WISCONSIN

CITY           SKY/WX    TMP DP  RH WIND       PRES   REMARKS
REEDSBURG      SUNNY     65  65 100 CALM      30.02S
BARABOO/DELLS  MOSUNNY   66  63  89 CALM      30.03R
LONE ROCK      PTSUNNY   65  64  97 CALM      30.03S FOG
MINERAL POINT  MOSUNNY   68  66  94 CALM      30.04S
MADISON        MOSUNNY   71  67  87 CALM      30.02S
6HR MIN TEMP:  65; 6HR MAX TEMP:  71;

MIDDLETON      SUNNY     67  67  99 CALM      30.03S
WATERTOWN      SUNNY     65  65 100 CALM      30.02S
MONROE         SUNNY     70  63  78 W7        30.04S
JANESVILLE     SUNNY     66  64  94 CALM      30.03S
$$

WIZ051-052-058>065-066-070>072-271300-
SOUTHEAST WISCONSIN

CITY           SKY/WX    TMP DP  RH WIND       PRES   REMARKS
MILWAUKEE      MOSUNNY   76  65  68 W5        30.01S
6HR MIN TEMP:  72; 6HR MAX TEMP:  76;

WAUKESHA       SUNNY     66  64  94 CALM      30.04R
MILWAUKEE/TIMM SUNNY     68  61  77 CALM      30.03S
RACINE         SUNNY     72  64  76 W5        30.04R
6HR MIN TEMP:  69; 6HR MAX TEMP:  73;

BURLINGTON     MOSUNNY   63  62  97 CALM      30.03S
KENOSHA        SUNNY     71  66  84 W3        30.03S
6HR MIN TEMP:  65; 6HR MAX TEMP:  71;

FOND DU LAC    SUNNY     70  66  87 SW3       30.01F
6HR MIN TEMP:  66; 6HR MAX TEMP:  71;

SHEBOYGAN      SUNNY     73  67  81 W5        30.00S
6HR MIN TEMP:  66; 6HR MAX TEMP:  73;

WEST BEND      SUNNY     66  64  94 CALM      30.02S
JUNEAU         SUNNY     66  64  93 S3        30.04R
$$

LSZ147-162-271300-
LAKE SUPERIOR

STATION/POSITION TIME  TEMP    WIND        PRES    WAVE
                       AIR SEA DIR/SP/G            HT/PER
                 (UTC) (F)     (DEG/KT/KT) (MB)    (FT/S)
W MID LAKE BUOY  1050   64 60   50/ 10/ 12 1014.5R   0
DEVILS ISLAND    1100   66      40/  9/ 10 1015.1R
PORT WING        1100   67     210/  4/  4 1015.2R
SAXON HARBOR     1140   69     200/  4/  5 1014.9R
$$

LMZ867-665-643>646-271300-
LAKE MICHIGAN

STATION/POSITION TIME  TEMP    WIND        PRES    WAVE
                       AIR SEA DIR/SP/G            HT/PER
                 (UTC) (F)     (DEG/KT/KT) (MB)    (FT/S)
CHAMBERS ISLAND  1100   70     100/  4/  6 1014.2S
S GREEN BAY BUOY 1100   74 74   80/  6/  8   N/A
N MID LAKE BUOY  1050   70 69  260/  6/  6 1013.8R   2/ 4
NORTHPORT PIER   1100   71     300/  4/  9 1014.2S
SISTER BAY       1121   71        CALM       N/A
ALGOMA LAKESHORE 1143             CALM       N/A
KEWAUNEE LAKESHO 1100   72     300/  2/  3 1014.6R
SHEBOYGAN LAKESH 1100   71     330/  5/  6 1015.7R
PORT WASHINGTON  1140   75     260/  5/  7 1016.6R
ATWATER BUOY     1100   66 54  180/  2/  2 1017.8R
MILWAUKEE LAKESH 1110   75     280/  5/  6   N/A
S MID LAKE BUOY  1050   75 74  240/  6/  8 1015.5R   0
KENOSHA   LAKESH 1100   73     270/  5/  8 1016.3R
$$

TC  - TEMPERATURE IN CELSIUS
VSB - VISIBILITY IN STATUTE MILES
WCI - WIND CHILL INDEX
HX  - HEAT INDEX





USA.gov is the U.S. government's official web portal to all federal, state and local government web resources and services.